Henderson, KY

9:38 AM CST on November 12, 2019 (GMT -0600)
Henderson City-County

Weather History for KEHR - September, 2019

Change the Weather History Date:

Friday, September 13, 2019

  Actual Average Record
Temperature  
Mean Temperature 81 °F -  
Max Temperature 93 °F 84 °F 103 °F (1939)
Min Temperature 68 °F 60 °F 41 °F (1940)
Cooling Degree Days 16    
Growing Degree Days 31 (Base 50)    
Moisture  
Dew Point 67 °F    
Average Humidity 69    
Maximum Humidity 96    
Minimum Humidity 43    
Precipitation  
Precipitation 0.00 in - - ()
Sea Level Pressure  
Sea Level Pressure 30.12 in    
Wind  
Wind Speed 5 mph (WSW)    
Max Wind Speed 14 mph    
Max Gust Speed 18 mph    
Visibility 10 miles    
Events      
Averages and records for this station are not official NWS values.
T = Trace of Precipitation, MM = Missing Value Source: NWS Daily Summary

Daily Weather History Graph

Daily Weather History Graph

Search for Another Location

Airport or City:

Astronomy

Sep. 13, 2019 Rise Set
Actual Time 6:30 AM CDT 7:02 PM CDT
Civil Twilight 6:04 AM CDT 7:28 PM CDT
Nautical Twilight 5:33 AM CDT 7:59 PM CDT
Astronomical Twilight 5:01 AM CDT 8:31 PM CDT
Moon 7:14 PM CDT (9/13) 5:49 AM CDT (9/13)
Length of Visible Light 13h 24m
Length of Day
12h 31m
Full, 100% of the Moon is Illuminated
Sep 13
Full
Sep 13
Full
Sep 21
Last Quarter
Sep 28
New
Oct 5
First Quarter

Hourly Weather History & Observations

Time (CDT) Temp. Heat Index Dew Point Humidity Pressure Visibility Wind Dir Wind Speed Gust Speed Precip Events Conditions
12:56 AM 69.1 °F - 68.0 °F 96% 30.10 in 10.0 mi Calm Calm - N/A   Clear
1:56 AM 70.0 °F - 68.0 °F 93% 30.10 in 10.0 mi South 3.5 mph - N/A   Clear
2:56 AM 70.0 °F - 68.0 °F 93% 30.09 in 10.0 mi Calm Calm - N/A   Clear
3:56 AM 70.0 °F - 66.9 °F 90% 30.09 in 10.0 mi South 3.5 mph - N/A   Clear
4:56 AM 70.0 °F - 66.9 °F 90% 30.09 in 10.0 mi SSW 3.5 mph - N/A   Clear
5:56 AM 69.1 °F - 66.9 °F 93% 30.09 in 10.0 mi SSW 3.5 mph - N/A   Clear
6:56 AM 71.1 °F - 68.0 °F 90% 30.10 in 10.0 mi SSW 3.5 mph - N/A   Clear
7:56 AM 75.9 °F - 71.1 °F 85% 30.12 in 10.0 mi SSW 4.6 mph - N/A   Clear
8:56 AM 82.0 °F 86.7 °F 72.0 °F 71% 30.12 in 10.0 mi SW 6.9 mph - N/A   Clear
9:56 AM 84.9 °F 90.7 °F 72.0 °F 65% 30.14 in 10.0 mi SW 10.4 mph - N/A   Clear
10:56 AM 88.0 °F 93.8 °F 71.1 °F 57% 30.14 in 10.0 mi SW 9.2 mph - N/A   Clear
11:56 AM 91.0 °F 97.6 °F 71.1 °F 52% 30.13 in 10.0 mi SW 10.4 mph 18.4 mph N/A   Clear
12:56 PM 93.0 °F 100.7 °F 72.0 °F 50% 30.12 in 10.0 mi SW 9.2 mph - N/A   Partly Cloudy
1:56 PM 91.0 °F 97.6 °F 71.1 °F 52% 30.11 in 10.0 mi West 8.1 mph - N/A   Clear
2:56 PM 91.9 °F 97.4 °F 70.0 °F 48% 30.10 in 10.0 mi West 13.8 mph - N/A   Clear
3:56 PM 91.9 °F 97.4 °F 70.0 °F 48% 30.09 in 10.0 mi West 12.7 mph 18.4 mph N/A   Clear
4:56 PM 90.0 °F 94.5 °F 69.1 °F 50% 30.09 in 10.0 mi West 11.5 mph - N/A   Clear
5:56 PM 86.0 °F 86.1 °F 61.0 °F 43% 30.10 in 10.0 mi NW 11.5 mph - N/A   Scattered Clouds
6:56 PM 81.0 °F 81.9 °F 62.1 °F 52% 30.11 in 10.0 mi NNW 4.6 mph - N/A   Clear
7:56 PM 75.0 °F - 64.0 °F 69% 30.13 in 10.0 mi WNW 3.5 mph - N/A   Clear
8:56 PM 75.9 °F - 59.0 °F 56% 30.15 in 10.0 mi NW 5.8 mph - N/A   Clear
9:56 PM 73.0 °F - 57.9 °F 59% 30.17 in 10.0 mi WNW 3.5 mph - N/A   Clear
10:56 PM 70.0 °F - 59.0 °F 68% 30.18 in 10.0 mi Calm Calm - N/A   Clear
11:56 PM 68.0 °F - 60.1 °F 76% 30.18 in 10.0 mi NW 4.6 mph - N/A   Clear